Flag for Australia Weather past 2 weeks in Kalgoorlie, Western Australia, Australia

Now
88 °F

Sunny.


Feels Like: 84 °F
Forecast: 61 / 79 °F
Wind: 17 mph from West

Location: Kalgoorlie Boulder Amo

Current Time: Oct 25, 2014 at 5:34:00 PM

Latest Report: Oct 25, 2014 at 5:02 PM


Visibility: N/A

Pressure: 29.89 "Hg

Humidity: 13%

Dew point: 32 °F

Location of KalgoorlieLocation

Historic Weather in Kalgoorlie — Graph

°F

Kalgoorlie temperature yesterday

Maximum temperature yesterday: 84 °F (at 3:00 PM)
Minimum temperature yesterday: 59 °F (at 4:00 AM)
Average temperature yesterday: 71 °F

Past Weeks' High & Low Weather Summary

 TemperatureHumidityPressure
High99 °F (Oct 16, 12:30 PM)100% (Oct 19, 12:00 AM)30.30 "Hg (Oct 19, 12:00 AM)
Low46 °F (Oct 13, 4:30 AM)4% (Oct 16, 12:00 AM)29.77 "Hg (Oct 16, 2:00 PM)
Average70 °F43%30.01 "Hg
* Reported Oct 10 6:00 PM — Oct 25 4:00 PM, Kalgoorlie, Weather by CustomWeather, © 2014

Note: Actual official high and low records may vary slightly from our data, if they occured in-between our weather recording intervals... More about our weather records

Advertising

Kalgoorlie weather history for previous 24 hours

 ConditionsComfort  
Time TempWeatherWind HumidityBarometerVisibility
4:00 PM
Oct 25
91 °FSunny.16 mph9%29.86 "HgN/A
3:30 PM91 °FSunny.16 mph10%29.86 "HgN/A
3:00 PM93 °FSunny.17 mph9%29.86 "HgN/A
2:30 PM93 °FSunny.20 mph8%29.86 "HgN/A
2:00 PM93 °FSunny.18 mph8%29.86 "HgN/A
1:30 PM93 °FSunny.17 mph8%29.86 "HgN/A
1:00 PM93 °FSunny.16 mph8%29.86 "HgN/A
12:00 PM93 °FSunny.17 mph10%29.89 "HgN/A
11:30 AM93 °FSunny.13 mph11%29.89 "HgN/A
11:00 AM90 °FSunny.12 mph20%29.89 "HgN/A
10:30 AM88 °FSunny.12 mph22%29.92 "HgN/A
10:00 AM86 °FSunny.9 mph25%29.92 "HgN/A
9:30 AM84 °FSunny.13 mph29%29.92 "HgN/A
9:00 AM81 °FSunny.8 mph32%29.92 "HgN/A
8:30 AM79 °FSunny.8 mph37%29.92 "HgN/A
8:00 AM75 °FSunny.9 mph41%29.92 "HgN/A
7:00 AM72 °FSunny.9 mph50%29.92 "HgN/A
6:30 AM68 °FSunny.9 mph56%29.92 "HgN/A
6:00 AM66 °FSunny.9 mph60%29.92 "HgN/A
5:30 AM66 °FSunny.8 mph60%29.92 "HgN/A
5:00 AM66 °FSunny.8 mph60%29.92 "HgN/A
4:30 AM66 °FSunny.8 mph60%29.92 "HgN/A
4:00 AM66 °FClear.8 mph60%29.92 "HgN/A
3:30 AM66 °FClear.8 mph60%29.92 "HgN/A
3:00 AM66 °FClear.9 mph56%29.92 "HgN/A
2:30 AM68 °FClear.10 mph53%29.92 "HgN/A
2:00 AM68 °FClear.9 mph53%29.92 "HgN/A
1:30 AM70 °FClear.10 mph50%29.92 "HgN/A
1:00 AM70 °FClear.10 mph50%29.92 "HgN/A
12:30 AM70 °FClear.12 mph50%29.95 "HgN/A
12:00 AM72 °FClear.12 mph47%29.95 "HgN/A
11:30 PM
Oct 24
72 °FClear.13 mph47%29.95 "HgN/A
11:00 PM72 °FClear.13 mph47%29.95 "HgN/A
10:30 PM68 °FClear.9 mph49%29.95 "HgN/A
10:00 PM68 °FClear.7 mph49%29.95 "HgN/A
9:30 PM68 °FClear.7 mph53%29.95 "HgN/A
9:00 PM72 °FClear.8 mph44%29.95 "HgN/A
8:30 PM72 °FClear.7 mph44%29.95 "HgN/A
8:00 PM73 °FClear.8 mph41%29.95 "HgN/A
7:30 PM75 °FClear.9 mph36%29.95 "HgN/A
7:00 PM77 °FClear.8 mph32%29.95 "HgN/A
6:30 PM79 °FClear.8 mph28%29.95 "HgN/A
6:00 PM81 °FClear.9 mph24%29.95 "HgN/A
5:30 PM82 °FClear.8 mph23%29.92 "HgN/A
5:00 PM84 °FSunny.7 mph22%29.92 "HgN/A
Weather by CustomWeather, © 2014

See weather overviewHow to use our weather pages